When you browse on this site, cookies collect data to enhance your experience and personalize the content and advertising you see.
Visit our Privacy Policy to learn more. By continuing to use the site, you agree to this use of cookies and data.
  • In Hungary
  • List of Countries
  • For 7 days
  • Water Temperature
  • Satellite Maps
  • Weather Map
  • News
  • Weather Widgets
  • user-avatar
    Login

    Hourly Weather Kifa

    Today, 18 January, Friday

    Time Temperature Precipitation Wind Pressure Humidity
    00:00 +25°C° 0 mm 4 mps 747 mmHg 8%
    01:00 +23°C° 0 mm 4 mps 747 mmHg 8%
    02:00 +23°C° 0 mm 5 mps 746 mmHg 9%
    03:00 +23°C° 0 mm 5 mps 747 mmHg 9%
    04:00 +22°C° 0 mm 5 mps 747 mmHg 9%
    05:00 +22°C° 0 mm 5 mps 747 mmHg 10%
    06:00 +22°C° 0 mm 6 mps 747 mmHg 10%
    07:00 +22°C° 0 mm 6 mps 748 mmHg 10%
    08:00 +22°C° 0 mm 7 mps 748 mmHg 10%
    09:00 +24°C° 0 mm 7 mps 748 mmHg 10%
    10:00 +27°C° 0 mm 7 mps 748 mmHg 10%
    11:00 +28°C° 0 mm 7 mps 749 mmHg 12%
    12:00 +29°C° 0 mm 7 mps 748 mmHg 12%
    13:00 +30°C° 0 mm 6 mps 748 mmHg 11%
    14:00 +30°C° 0 mm 6 mps 748 mmHg 11%
    15:00 +30°C° 0 mm 6 mps 748 mmHg 12%
    16:00 +29°C° 0 mm 6 mps 748 mmHg 13%
    17:00 +28°C° 0 mm 5 mps 748 mmHg 13%
    18:00 +27°C° 0 mm 6 mps 748 mmHg 16%
    19:00 +24°C° 0 mm 6 mps 749 mmHg 19%
    20:00 +23°C° 0 mm 6 mps 749 mmHg 21%
    21:00 +22°C° 0 mm 7 mps 749 mmHg 24%
    22:00 +21°C° 0 mm 7 mps 750 mmHg 27%
    23:00 +20°C° 0 mm 7 mps 750 mmHg 29%

    Tomorrow, 19 January, Saturday

    Time Temperature Precipitation Wind Pressure Humidity
    00:00 +18°C° 0 mm 7 mps 750 mmHg 31%
    01:00 +17°C° 0 mm 6 mps 750 mmHg 32%
    02:00 +17°C° 0 mm 6 mps 749 mmHg 33%
    03:00 +16°C° 0 mm 6 mps 750 mmHg 35%
    04:00 +15°C° 0 mm 5 mps 750 mmHg 37%
    05:00 +15°C° 0 mm 5 mps 750 mmHg 39%
    06:00 +15°C° 0 mm 6 mps 750 mmHg 37%
    07:00 +16°C° 0 mm 7 mps 750 mmHg 35%
    08:00 +17°C° 0 mm 8 mps 751 mmHg 33%
    09:00 +20°C° 0 mm 8 mps 751 mmHg 28%
    10:00 +22°C° 0 mm 8 mps 751 mmHg 23%
    11:00 +24°C° 0 mm 8 mps 751 mmHg 18%
    12:00 +26°C° 0 mm 7 mps 750 mmHg 15%
    13:00 +28°C° 0 mm 7 mps 749 mmHg 13%
    14:00 +29°C° 0 mm 7 mps 749 mmHg 10%
    15:00 +28°C° 0 mm 6 mps 749 mmHg 10%
    16:00 +28°C° 0 mm 5 mps 749 mmHg 10%
    17:00 +27°C° 0 mm 5 mps 748 mmHg 10%
    18:00 +25°C° 0 mm 5 mps 749 mmHg 12%
    19:00 +22°C° 0 mm 4 mps 749 mmHg 14%
    20:00 +21°C° 0 mm 4 mps 750 mmHg 15%
    21:00 +20°C° 0 mm 4 mps 750 mmHg 16%
    22:00 +19°C° 0 mm 4 mps 750 mmHg 17%
    23:00 +18°C° 0 mm 4 mps 750 mmHg 18%

    Day after tomorrow, 20 January, Sunday

    Time Temperature Precipitation Wind Pressure Humidity
    00:00 +17°C° 0 mm 4 mps 750 mmHg 19%
    01:00 +17°C° 0 mm 4 mps 750 mmHg 20%
    02:00 +15°C° 0 mm 4 mps 750 mmHg 21%
    03:00 +15°C° 0 mm 4 mps 750 mmHg 22%
    04:00 +14°C° 0 mm 4 mps 750 mmHg 23%
    05:00 +14°C° 0 mm 4 mps 750 mmHg 24%
    06:00 +15°C° 0 mm 4 mps 750 mmHg 22%
    07:00 +16°C° 0 mm 5 mps 751 mmHg 20%
    08:00 +17°C° 0 mm 6 mps 751 mmHg 18%
    09:00 +21°C° 0 mm 6 mps 751 mmHg 14%
    10:00 +23°C° 0 mm 6 mps 751 mmHg 10%
    11:00 +27°C° 0 mm 7 mps 751 mmHg 6%
    12:00 +28°C° 0 mm 6 mps 750 mmHg 6%
    13:00 +29°C° 0 mm 5 mps 749 mmHg 5%
    14:00 +30°C° 0 mm 5 mps 748 mmHg 4%
    15:00 +29°C° 0 mm 4 mps 748 mmHg 4%
    16:00 +28°C° 0 mm 4 mps 748 mmHg 4%
    17:00 +28°C° 0 mm 3 mps 748 mmHg 4%
    18:00 +26°C° 0 mm 4 mps 749 mmHg 5%
    19:00 +23°C° 0 mm 4 mps 749 mmHg 6%
    20:00 +21°C° 0 mm 4 mps 750 mmHg 6%
    21:00 +20°C° 0 mm 4 mps 750 mmHg 7%
    22:00 +19°C° 0 mm 4 mps 750 mmHg 7%
    23:00 +18°C° 0 mm 4 mps 750 mmHg 8%

    21 January, Monday

    Time Temperature Precipitation Wind Pressure Humidity
    00:00 +18°C° 0 mm 4 mps 750 mmHg 8%
    01:00 +17°C° 0 mm 4 mps 749 mmHg 9%
    02:00 +15°C° 0 mm 4 mps 749 mmHg 9%
    03:00 +15°C° 0 mm 4 mps 749 mmHg 10%
    04:00 +14°C° 0 mm 4 mps 749 mmHg 11%
    05:00 +14°C° 0 mm 4 mps 749 mmHg 11%
    06:00 +15°C° 0 mm 4 mps 749 mmHg 11%
    07:00 +17°C° 0 mm 4 mps 750 mmHg 10%
    08:00 +18°C° 0 mm 4 mps 750 mmHg 10%
    09:00 +20°C° 0 mm 4 mps 750 mmHg 8%
    10:00 +23°C° 0 mm 5 mps 750 mmHg 7%
    11:00 +27°C° 0 mm 5 mps 750 mmHg 6%
    12:00 +28°C° 0 mm 4 mps 749 mmHg 5%
    13:00 +29°C° 0 mm 4 mps 748 mmHg 4%
    14:00 +30°C° 0 mm 3 mps 747 mmHg 4%
    15:00 +29°C° 0 mm 3 mps 747 mmHg 4%
    16:00 +28°C° 0 mm 3 mps 748 mmHg 4%
    17:00 +28°C° 0 mm 3 mps 748 mmHg 4%
    18:00 +26°C° 0 mm 4 mps 748 mmHg 5%
    19:00 +23°C° 0 mm 4 mps 749 mmHg 6%
    20:00 +21°C° 0 mm 4 mps 749 mmHg 6%
    21:00 +21°C° 0 mm 4 mps 749 mmHg 7%
    22:00 +20°C° 0 mm 4 mps 749 mmHg 7%
    23:00 +19°C° 0 mm 4 mps 749 mmHg 8%

    22 January, Tuesday

    Time Temperature Precipitation Wind Pressure Humidity
    00:00 +19°C° 0 mm 4 mps 749 mmHg 8%
    01:00 +18°C° 0 mm 4 mps 749 mmHg 9%
    02:00 +17°C° 0 mm 4 mps 748 mmHg 10%
    03:00 +17°C° 0 mm 4 mps 748 mmHg 12%
    04:00 +17°C° 0 mm 4 mps 748 mmHg 14%
    05:00 +15°C° 0 mm 4 mps 748 mmHg 16%
    06:00 +18°C° 0 mm 4 mps 749 mmHg 20%
    07:00 +19°C° 0 mm 5 mps 749 mmHg 24%
    08:00 +20°C° 0 mm 6 mps 750 mmHg 27%
    09:00 +22°C° 0 mm 6 mps 750 mmHg 26%
    10:00 +24°C° 0 mm 6 mps 750 mmHg 24%
    11:00 +27°C° 0 mm 7 mps 750 mmHg 22%
    12:00 +28°C° 0 mm 6 mps 749 mmHg 20%
    13:00 +29°C° 0 mm 6 mps 748 mmHg 19%
    14:00 +30°C° 0 mm 5 mps 748 mmHg 17%
    15:00 +29°C° 0 mm 5 mps 748 mmHg 18%
    16:00 +28°C° 0 mm 5 mps 748 mmHg 19%
    17:00 +28°C° 0 mm 5 mps 748 mmHg 20%
    18:00 +26°C° 0 mm 5 mps 748 mmHg 23%
    19:00 +23°C° 0 mm 5 mps 749 mmHg 26%
    20:00 +22°C° 0 mm 4 mps 749 mmHg 28%
    21:00 +21°C° 0 mm 5 mps 749 mmHg 29%
    22:00 +21°C° 0 mm 5 mps 749 mmHg 30%
    23:00 +20°C° 0 mm 5 mps 749 mmHg 31%

    23 January, Wednesday

    Time Temperature Precipitation Wind Pressure Humidity
    00:00 +19°C° 0 mm 5 mps 749 mmHg 30%
    01:00 +19°C° 0 mm 5 mps 749 mmHg 29%
    02:00 +17°C° 0 mm 5 mps 748 mmHg 28%
    03:00 +17°C° 0 mm 4 mps 748 mmHg 28%
    04:00 +17°C° 0 mm 4 mps 748 mmHg 28%
    05:00 +15°C° 0 mm 4 mps 748 mmHg 29%
    06:00 +16°C° 0 mm 5 mps 749 mmHg 26%
    07:00 +17°C° 0 mm 5 mps 749 mmHg 24%
    08:00 +20°C° 0 mm 6 mps 750 mmHg 22%
    09:00 +22°C° 0 mm 6 mps 749 mmHg 20%
    10:00 +24°C° 0 mm 7 mps 749 mmHg 17%
    11:00 +27°C° 0 mm 7 mps 749 mmHg 15%
    12:00 +27°C° 0 mm 6 mps 749 mmHg 14%
    13:00 +28°C° 0 mm 6 mps 748 mmHg 13%
    14:00 +28°C° 0 mm 5 mps 747 mmHg 13%
    15:00 +28°C° 0 mm 5 mps 747 mmHg 13%
    16:00 +27°C° 0 mm 5 mps 747 mmHg 14%
    17:00 +27°C° 0 mm 4 mps 747 mmHg 14%
    18:00 +26°C° 0 mm 4 mps 748 mmHg 16%
    19:00 +25°C° 0 mm 4 mps 748 mmHg 17%
    20:00 +23°C° 0 mm 4 mps 748 mmHg 18%
    21:00 +23°C° 0 mm 4 mps 748 mmHg 19%
    22:00 +23°C° 0 mm 4 mps 748 mmHg 20%
    23:00 +22°C° 0 mm 4 mps 748 mmHg 21%
    Show more